Temperature
22 21 21 21 20 19 20 22 22 21 21 21 21 21 20 19 19 19 19 19 19 19 19 19 19 19 19 19 19 19 19 19 19 19 19 19 19 19 18 19 19 19 18 18 18 18 18 18 18
22 22 21 21 20 20 21 22 22 21 21 21 21 20 19 18 18 19 19 19 19 19 19 19 19 19 19 19 19 19 19 19 19 19 19 18 18 18 18 18 18 18 18 18 18 18 18 18 18
22 22 22 20 20 20 21 22 21 22 22 22 21 20 19 18 18 19 19 19 19 19 19 19 19 19 19 19 19 19 19 19 19 19 19 18 18 18 18 18 18 18 18 18 18 18 18 18 18
22 22 22 20 21 22 22 22 22 22 22 21 20 19 19 19 19 19 19 19 19 19 19 19 19 19 19 19 19 19 19 19 19 19 18 18 18 18 18 18 18 18 18 18 18 18 18 18 18
22 22 20 20 21 22 22 23 22 22 21 21 20 19 18 19 19 20 19 19 19 19 19 19 19 19 19 19 19 19 19 19 19 19 18 18 18 18 18 18 18 18 18 18 18 18 18 18 18
23 21 20 21 22 23 23 23 22 21 21 21 20 19 18 19 20 20 19 19 19 19 19 19 19 19 19 19 19 19 19 19 19 18 18 18 18 18 18 18 18 18 18 18 18 18 18 18 18
22 20 21 21 22 23 23 23 22 21 21 21 20 18 18 19 19 19 19 19 19 19 19 19 19 19 19 19 19 19 19 19 19 18 18 18 18 18 18 18 18 18 18 18 18 18 18 18 18
23 20 22 22 22 23 23 23 22 22 21 21 21 19 19 19 19 19 19 19 19 19 19 19 19 19 19 19 18 18 18 18 18 18 18 18 18 18 18 18 18 18 18 18 18 18 18 18 18
24 21 21 22 23 23 23 23 23 22 21 21 21 21 20 20 19 19 19 19 19 19 19 19 19 19 19 19 18 18 18 18 18 18 18 18 18 18 18 18 18 18 18 18 18 18 18 18 18
23 21 23 23 23 23 23 23 23 22 21 20 20 20 20 19 19 19 19 19 19 19 19 19 19 19 19 19 19 19 19 18 18 18 18 18 18 18 18 18 18 18 18 18 18 18 18 18 18
23 22 24 24 25 24 23 23 23 22 21 21 20 20 20 19 19 19 19 19 19 19 19 19 19 19 19 19 19 19 19 18 18 18 18 18 18 18 18 18 18 18 18 18 18 18 18 18 18
23 24 25 25 25 25 24 23 23 22 22 22 22 21 20 19 19 19 19 19 19 19 19 19 19 19 19 19 19 19 19 18 18 18 18 18 18 18 18 18 18 18 18 18 18 18 18 18 18
24 25 25 25 25 24 24 23 23 22 23 22 21 21 20 20 19 19 20 20 20 20 19 19 19 19 19 19 19 19 19 19 18 18 18 18 18 18 18 18 18 18 18 18 18 18 18 18 18
25 25 25 25 25 24 23 23 22 22 22 21 21 20 20 20 20 20 19 20 20 20 20 20 19 19 19 19 19 19 19 19 19 18 18 18 18 18 18 18 18 18 18 18 18 18 18 18 18
26 25 24 25 25 24 24 23 22 22 21 21 20 20 20 20 20 20 20 20 20 20 20 20 19 19 19 19 19 19 19 19 19 19 18 18 18 18 18 18 18 18 18 18 18 18 18 18 18
25 24 24 25 24 24 24 22 22 22 21 20 20 20 20 20 20 21 20 20 20 20 20 20 20 19 19 19 19 19 19 19 19 19 19 18 18 18 18 18 18 18 18 18 18 18 18 18 18
23 23 24 24 24 24 23 22 22 22 21 20 20 20 20 20 21 21 21 21 21 20 20 20 20 20 19 19 19 19 19 19 19 19 19 19 19 18 18 18 18 18 18 18 18 18 18 18 18
24 24 24 24 24 23 23 22 22 22 21 21 20 21 20 21 21 21 21 21 21 20 20 20 20 20 19 19 19 19 19 19 19 19 19 19 19 18 18 18 18 18 18 18 18 18 18 18 18
24 24 24 24 24 23 22 22 22 21 21 21 21 21 21 21 22 21 21 21 21 21 20 20 20 20 19 19 19 19 19 19 19 19 19 19 19 19 18 18 18 18 18 18 18 18 18 18 18
24 24 24 24 24 23 22 22 22 21 21 21 21 21 21 21 22 22 21 21 21 21 20 20 20 20 20 19 19 19 19 19 19 19 19 19 19 19 19 18 18 18 18 18 18 18 18 18 18
24 24 24 24 24 23 23 22 21 21 21 21 22 22 22 22 22 22 22 21 21 21 21 20 20 20 20 19 19 19 19 19 19 19 19 19 19 19 19 18 19 18 18 18 18 18 18 18 18
24 25 25 24 23 21 23 21 21 20 20 21 21 22 22 22 22 22 22 21 21 21 21 21 20 20 20 19 19 19 19 19 19 19 19 19 19 19 19 19 19 18 18 18 18 18 18 18 18
25 25 24 23 22 21 21 21 21 20 21 20 21 22 22 22 22 22 22 22 22 21 21 21 20 20 20 20 19 19 19 19 19 19 19 19 19 19 19 19 19 18 18 18 18 18 18 18 18
25 23 22 20 20 21 22 21 21 20 21 21 21 22 22 22 22 22 22 22 21 21 21 21 20 20 20 20 19 19 19 19 19 19 19 19 19 19 19 19 19 18 18 18 18 18 18 18 18
24 22 21 22 20 21 21 21 20 21 21 21 22 22 23 23 22 22 22 22 22 21 21 21 20 20 20 20 20 19 19 19 19 19 19 19 19 19 19 19 18 18 18 18 18 18 18 18 18
23 22 21 22 21 20 20 20 21 22 22 22 23 23 23 23 23 22 22 22 22 21 21 21 21 20 20 20 20 19 19 19 19 19 19 19 18 18 18 18 18 18 18 18 18 18 18 18 18
23 21 21 20 20 20 20 20 21 21 21 21 22 22 22 23 23 23 22 22 22 22 21 21 21 21 20 20 20 19 19 19 19 19 19 19 18 18 18 18 18 18 18 18 18 18 18 17 17
23 20 19 19 20 21 21 21 20 21 21 20 20 21 22 22 23 22 22 22 22 22 21 21 21 21 20 20 20 20 19 19 19 19 19 18 18 18 18 18 18 18 18 18 17 17 17 17 17
22 21 19 17 19 20 20 21 21 20 21 20 20 21 22 22 22 22 22 22 22 22 21 21 21 20 20 20 20 19 19 19 19 19 19 18 18 18 18 18 18 18 18 17 17 17 17 17 17
23 21 19 21 20 18 19 20 22 20 20 20 21 22 22 22 22 22 22 22 22 21 21 21 20 20 20 20 20 19 19 19 19 19 18 18 18 18 18 18 18 17 17 17 17 17 17 17 17
Wind_Speed
6 5 2 1 3 5 3 2 1 3 3 3 5 6 6 4 2 4 1 6 7 6 7 10 11 12 12 12 13 13 14 14 14 14 14 14 14 13 13 12 12 11 11 10 10 9 9 9 9
5 4 1 2 4 4 2 2 3 3 5 5 6 6 6 5 4 6 4 5 7 7 7 9 11 12 12 12 12 13 13 13 13 13 13 13 13 12 12 11 11 10 9 9 8 8 8 8 8
5 2 2 3 3 3 2 1 4 5 5 3 4 5 4 3 5 4 4 7 7 6 7 8 11 11 11 11 11 12 11 11 11 11 12 12 12 11 11 10 9 9 8 8 7 7 7 6 6
2 2 3 4 3 0 3 4 6 6 4 5 5 5 4 3 4 5 8 9 8 5 6 8 11 10 10 10 10 10 10 10 10 10 10 10 10 10 9 9 8 7 6 6 5 5 5 5 4
2 3 5 4 2 1 2 5 4 4 3 4 5 5 3 3 7 10 9 8 8 5 5 7 10 9 10 10 10 9 9 9 8 8 8 8 8 8 8 7 7 6 5 4 4 4 3 3 3
3 4 4 2 2 2 2 4 4 5 5 5 5 4 3 3 8 9 8 7 6 5 5 6 9 9 9 8 8 8 7 7 7 7 7 6 6 6 6 5 5 4 4 3 3 3 2 2 1
3 4 3 2 1 1 2 3 4 5 5 4 4 5 3 4 6 8 7 7 5 5 4 4 5 7 7 7 7 6 6 6 6 6 5 5 5 5 5 4 4 3 3 2 2 2 1 1 1
3 4 2 1 2 2 3 3 4 5 5 5 4 6 5 6 8 8 7 6 5 3 2 3 3 4 4 4 5 5 5 5 5 5 4 5 4 3 3 3 3 3 3 3 3 2 2 2 2
3 4 1 4 5 4 5 4 3 4 6 3 3 4 6 12 12 9 7 4 3 3 2 2 2 2 2 2 4 4 4 4 4 3 3 3 2 1 1 2 3 3 3 4 3 2 2 3 3
4 3 4 4 5 5 6 5 5 5 5 3 5 7 11 13 12 10 9 8 7 5 4 3 2 2 3 3 2 2 2 2 2 1 1 2 1 1 0 1 2 2 2 2 2 2 2 2 2
3 4 2 1 4 6 5 4 4 8 4 6 9 13 14 12 11 10 9 8 8 6 5 4 4 3 3 2 2 2 1 1 1 1 1 2 1 1 1 2 2 3 2 2 2 2 1 2 2
2 2 2 2 4 5 5 5 4 5 4 7 12 15 14 13 12 11 10 9 6 6 6 5 4 3 3 3 2 2 1 1 1 2 2 1 0 1 1 1 2 2 2 1 2 2 2 2 3
1 1 1 3 5 6 5 4 4 2 5 11 13 13 13 12 10 9 7 7 6 7 7 6 6 5 4 3 2 3 2 2 3 3 3 2 1 1 1 1 2 2 2 1 2 1 2 2 2
1 1 2 3 5 3 5 3 3 3 8 12 13 11 11 11 10 8 8 8 8 8 7 6 6 5 4 3 2 2 3 3 3 3 4 4 3 2 1 1 1 2 2 2 2 2 2 2 2
2 4 4 2 3 3 6 2 2 6 10 11 11 10 10 9 9 10 10 10 9 8 7 7 7 6 5 4 4 3 3 3 3 3 4 3 4 3 2 1 1 3 3 3 2 1 1 1 1
4 4 2 2 2 4 6 3 2 8 10 10 10 9 9 8 9 9 9 8 8 7 7 7 7 7 6 5 4 3 3 3 3 4 4 4 4 4 3 1 2 3 2 2 1 1 1 1 1
4 2 1 2 2 3 4 3 3 8 10 9 9 8 8 8 8 8 8 9 8 8 8 8 6 6 6 5 3 3 2 2 3 3 3 4 4 5 4 2 3 3 1 1 1 1 1 1 1
2 1 2 3 3 4 4 3 4 8 9 9 8 8 8 10 10 8 8 8 8 8 8 8 6 6 5 4 2 1 1 1 2 3 4 5 5 4 4 3 3 2 1 1 1 1 1 1 1
4 3 4 5 2 4 4 4 5 8 8 8 8 8 9 10 7 7 7 8 8 7 8 8 7 6 5 3 3 2 2 2 2 3 5 5 5 4 3 2 1 1 1 1 1 1 0 1 0
4 2 3 3 1 3 1 2 2 7 9 10 10 10 10 8 6 7 7 8 9 9 9 9 9 8 7 5 3 3 2 2 2 2 3 5 5 4 4 3 2 2 2 1 1 1 1 1 0
2 5 5 3 2 3 2 3 2 2 4 5 6 7 7 9 9 8 8 9 9 9 10 10 9 8 7 6 3 2 1 1 1 1 2 3 4 4 3 3 3 2 2 2 2 2 2 1 1
4 5 5 4 3 1 1 2 5 3 4 6 7 8 9 9 9 8 8 9 10 10 9 8 8 7 6 6 5 5 4 4 4 2 2 2 2 2 3 3 3 2 2 3 3 2 2 2 2
5 2 4 3 4 2 2 1 7 2 4 8 9 9 9 9 9 9 9 9 9 8 8 7 6 6 6 6 7 5 4 3 2 1 2 1 1 2 2 2 2 2 3 3 3 2 2 2 2
5 6 6 6 5 1 2 3 6 4 7 7 7 8 8 8 8 7 7 6 6 6 6 6 7 6 6 6 6 6 6 5 3 2 2 2 1 2 1 2 2 2 2 3 3 3 2 2 3
6 6 4 5 4 4 2 2 7 7 6 8 8 8 7 7 7 7 8 8 7 8 7 6 6 5 5 6 6 6 6 5 5 4 3 2 1 1 1 1 1 2 2 2 2 2 2 2 2
4 8 7 5 5 5 2 4 7 5 4 3 4 4 4 6 7 8 9 9 9 9 8 7 7 6 5 5 4 4 4 4 3 3 3 2 2 2 1 1 1 1 1 1 1 1 2 2 2
6 4 6 7 3 0 4 6 7 2 1 1 2 3 5 6 6 7 7 8 8 8 8 9 8 6 5 5 5 3 3 4 4 3 2 2 2 2 1 1 1 1 1 1 1 1 1 1 1
5 9 6 6 5 3 5 5 5 5 4 3 3 4 5 5 6 6 6 7 7 8 7 7 7 7 5 5 5 4 4 4 3 3 2 2 1 1 1 1 1 1 1 1 1 1 1 1 1
4 5 6 5 5 6 4 7 6 8 8 7 6 5 4 5 5 5 4 4 5 5 6 6 6 6 5 5 4 4 3 3 3 2 2 2 1 1 1 2 2 1 1 1 1 1 1 1 1
5 7 7 5 4 5 5 7 5 6 7 6 5 4 4 4 4 4 5 5 5 5 6 6 6 6 6 6 5 4 3 3 3 2 2 2 2 1 1 1 1 1 1 1 1 1 1 1 1
Wind_Direction
172 164 154 107 58 52 33 2 87 83 68 71 90 88 97 82 103 135 124 128 121 119 121 122 117 113 112 111 110 111 116 115 118 122 125 127 127 128 128 125 122 118 116 113 111 110 108 106 105
156 167 142 59 70 64 10 13 90 92 130 117 84 73 72 66 68 106 124 136 124 122 120 124 122 119 117 114 112 113 115 116 119 122 125 127 128 129 130 128 125 121 119 117 114 112 110 108 106
172 189 80 65 73 129 153 148 127 110 115 94 85 69 73 97 118 134 148 135 117 114 119 131 128 124 122 119 117 116 117 117 121 123 126 129 130 131 133 131 127 126 125 123 118 114 113 112 109
147 60 54 64 59 206 164 162 137 120 71 58 94 77 69 89 137 137 133 128 121 119 127 136 132 129 127 124 122 120 118 118 120 124 129 131 133 136 139 137 133 130 129 129 124 122 122 121 118
79 72 57 46 11 19 124 146 138 102 79 71 86 86 60 36 106 123 129 128 128 126 129 141 138 135 131 128 126 126 124 123 122 126 131 134 136 140 141 141 143 141 140 138 136 135 131 129 127
61 66 71 55 22 46 97 121 111 94 96 94 92 93 65 102 120 133 129 127 129 130 129 142 145 141 137 135 133 132 132 132 133 132 136 139 143 145 147 153 157 158 161 163 160 164 159 151 146
97 86 106 134 105 89 149 118 118 119 114 121 118 104 108 139 135 130 121 119 120 122 124 130 143 144 145 143 142 141 139 140 138 137 142 149 156 157 158 163 170 177 186 196 199 202 198 207 235
129 100 88 146 158 184 150 117 118 123 115 119 118 136 168 169 136 118 108 106 112 115 115 128 127 128 134 147 153 153 150 145 141 142 145 151 157 167 172 180 190 199 205 228 239 245 239 256 260
110 77 173 195 177 175 154 130 122 92 111 108 99 135 150 138 132 123 118 116 136 159 147 136 135 134 137 157 174 169 162 157 152 154 158 137 107 112 151 200 212 222 223 237 248 256 263 274 270
97 132 219 204 175 158 156 139 137 120 119 105 88 96 122 136 143 149 158 168 180 189 193 181 174 173 169 184 179 174 158 150 151 159 138 101 95 87 135 249 243 247 254 260 270 283 294 301 295
146 186 219 177 156 138 139 132 128 134 165 179 156 145 144 150 158 167 177 184 192 191 194 191 188 188 185 194 180 175 152 147 164 183 154 132 102 7 356 355 343 348 2 3 347 331 311 285 278
153 245 185 158 133 133 142 134 123 157 191 157 151 149 154 164 173 180 187 192 190 187 199 197 187 188 199 199 189 181 180 191 215 234 223 169 160 303 315 323 326 342 340 344 335 327 305 287 277
138 323 60 132 118 124 117 118 127 140 119 128 136 148 163 175 182 186 191 188 185 192 199 199 191 189 195 193 195 185 199 211 226 241 244 219 212 244 286 303 310 318 322 313 303 287 284 286 293
153 79 55 88 106 123 121 107 101 148 130 135 147 165 176 183 184 183 187 191 192 196 199 195 193 194 192 196 195 198 210 211 221 236 239 231 225 233 234 272 306 303 296 282 276 275 275 286 285
80 70 42 57 103 127 112 72 181 160 141 148 164 177 185 192 188 192 192 193 194 195 194 194 196 192 192 199 201 205 215 211 222 238 244 235 226 225 227 243 264 276 279 272 278 298 313 294 294
50 65 57 279 134 137 128 226 208 157 153 165 176 186 195 201 201 203 195 193 193 187 188 197 200 190 193 193 191 198 205 205 222 232 235 232 229 224 213 216 250 265 267 255 253 276 298 293 296
38 61 247 277 185 147 154 219 187 162 166 178 185 193 200 207 213 210 198 192 190 189 187 191 197 187 187 187 184 188 193 205 219 225 233 238 236 226 205 208 236 243 235 238 240 232 225 267 291
237 222 251 253 230 154 176 225 173 173 181 191 194 201 206 212 216 205 198 191 187 186 185 187 191 186 174 167 159 162 189 233 231 227 234 243 242 236 216 219 235 217 207 235 227 242 250 246 265
178 186 246 260 218 162 200 221 197 185 188 201 206 210 217 222 216 193 191 187 182 182 182 187 188 186 168 162 170 179 215 223 234 234 236 242 242 235 216 227 220 195 206 230 231 213 260 304 270
163 191 262 306 100 154 193 273 231 194 203 205 207 211 217 217 205 194 190 189 187 188 189 189 194 189 185 180 171 174 187 212 220 234 241 243 239 229 219 206 211 199 203 226 222 183 184 275 134
203 191 209 213 38 50 69 334 292 234 211 208 210 210 208 207 205 201 196 195 191 195 198 199 197 194 192 179 149 133 103 16 278 249 244 242 236 231 225 210 203 204 199 218 227 204 194 223 248
239 220 179 153 106 333 86 273 289 259 244 223 218 213 207 204 200 196 194 194 198 205 200 195 192 193 191 176 173 177 192 219 229 230 243 256 243 237 227 217 209 210 212 223 236 217 206 203 235
208 119 116 110 120 60 28 146 288 301 256 244 226 217 212 202 197 195 194 194 193 192 189 187 182 189 187 181 182 184 207 220 223 216 239 264 285 258 232 218 214 214 217 221 222 219 214 215 224
132 76 62 52 71 22 255 173 279 245 229 237 223 213 209 199 196 197 192 184 183 175 172 173 177 192 190 184 184 187 197 197 192 216 224 251 268 279 270 223 224 221 217 223 221 213 208 218 222
93 89 38 7 10 259 267 190 253 257 234 219 220 214 202 193 189 191 185 185 183 174 172 170 175 192 192 181 184 188 191 188 192 202 207 217 246 266 273 236 237 240 234 229 218 208 220 220 219
162 140 156 193 220 271 324 240 260 274 257 234 230 215 191 189 193 195 195 190 186 179 173 170 177 183 177 173 180 181 181 186 197 201 197 202 221 241 257 229 235 246 244 236 202 206 228 218 222
139 165 160 136 148 235 282 284 303 305 313 273 224 201 200 201 195 194 191 189 185 180 179 177 178 174 173 176 168 164 172 180 190 190 188 208 233 240 245 239 243 250 239 233 199 205 232 218 234
135 142 104 121 152 232 283 273 252 263 252 247 229 215 208 199 192 187 185 188 185 182 180 173 172 176 173 173 174 179 185 188 185 175 188 208 234 246 236 239 229 249 261 246 205 215 213 180 251
114 105 109 120 152 163 230 265 226 221 220 216 219 214 200 194 189 179 171 169 172 172 173 171 170 169 173 179 182 182 189 191 182 182 195 199 209 219 231 232 224 231 239 222 192 211 182 186 287
157 159 148 156 203 176 182 259 274 230 220 206 209 208 195 181 179 168 162 158 168 178 180 178 179 182 191 189 182 184 188 178 176 190 205 201 197 201 211 213 213 231 232 212 192 217 200 193 235
Height
1496 1496 1497 1499 1502 1511 1516 1510 1505 1506 1507 1507 1508 1509 1511 1515 1519 1524 1521 1521 1522 1524 1525 1526 1527 1528 1529 1530 1531 1531 1532 1533 1534 1535 1537 1538 1540 1541 1542 1543 1545 1546 1547 1548 1549 1550 1551 1552 1553
1496 1497 1499 1500 1509 1523 1519 1509 1507 1506 1508 1508 1509 1511 1513 1515 1517 1518 1520 1522 1524 1525 1527 1528 1530 1531 1532 1533 1533 1534 1535 1536 1537 1538 1539 1540 1541 1543 1544 1545 1546 1547 1548 1549 1550 1552 1553 1553 1554
1497 1498 1501 1503 1513 1521 1517 1509 1507 1507 1508 1509 1511 1513 1515 1517 1518 1520 1521 1523 1526 1527 1529 1530 1532 1533 1534 1535 1536 1537 1537 1538 1539 1540 1541 1542 1543 1544 1546 1547 1548 1549 1550 1551 1552 1553 1554 1555 1555
1499 1501 1502 1509 1515 1511 1509 1507 1507 1508 1509 1510 1512 1515 1517 1520 1520 1521 1523 1525 1527 1529 1531 1532 1534 1535 1536 1537 1538 1539 1540 1541 1541 1542 1543 1544 1545 1546 1547 1548 1549 1550 1551 1552 1553 1554 1555 1556 1556
1500 1501 1508 1516 1514 1509 1507 1507 1508 1509 1511 1512 1513 1517 1519 1521 1522 1523 1525 1527 1529 1531 1533 1534 1536 1537 1538 1539 1540 1541 1542 1542 1543 1544 1545 1546 1547 1548 1549 1549 1550 1551 1552 1553 1554 1554 1555 1556 1557
1501 1503 1517 1522 1515 1509 1508 1508 1509 1511 1513 1514 1515 1518 1521 1523 1524 1525 1527 1529 1531 1533 1534 1536 1538 1539 1540 1541 1542 1543 1544 1544 1545 1546 1547 1547 1548 1549 1550 1551 1551 1552 1553 1554 1554 1555 1556 1557 1558
1503 1508 1516 1517 1516 1512 1510 1509 1510 1511 1513 1515 1516 1519 1522 1524 1526 1527 1529 1531 1533 1535 1536 1538 1539 1541 1542 1543 1544 1545 1545 1546 1547 1547 1548 1549 1550 1550 1551 1552 1552 1553 1554 1555 1555 1556 1556 1557 1558
1503 1508 1515 1516 1516 1513 1509 1510 1511 1512 1514 1516 1517 1519 1522 1524 1526 1528 1531 1533 1534 1536 1538 1539 1540 1542 1543 1544 1545 1546 1547 1547 1548 1549 1549 1550 1551 1552 1552 1553 1553 1554 1555 1555 1556 1556 1557 1558 1559
1503 1512 1518 1514 1512 1510 1508 1510 1512 1513 1515 1517 1518 1519 1521 1524 1527 1529 1531 1533 1535 1537 1539 1540 1542 1543 1544 1546 1547 1548 1548 1549 1549 1550 1550 1551 1552 1552 1553 1553 1554 1555 1555 1556 1556 1557 1557 1558 1559
1503 1514 1511 1505 1504 1506 1508 1509 1512 1514 1516 1517 1518 1520 1523 1525 1527 1529 1531 1533 1535 1537 1539 1541 1543 1544 1546 1547 1548 1549 1550 1550 1550 1551 1551 1552 1553 1553 1554 1554 1555 1555 1556 1556 1556 1557 1557 1558 1559
1503 1507 1503 1502 1502 1504 1507 1510 1511 1513 1516 1516 1517 1520 1523 1525 1528 1530 1531 1533 1535 1538 1540 1542 1543 1545 1547 1548 1549 1550 1551 1551 1552 1552 1552 1553 1553 1554 1555 1555 1555 1556 1556 1556 1557 1557 1557 1558 1558
1503 1502 1501 1502 1502 1505 1507 1510 1512 1513 1514 1515 1518 1520 1523 1525 1527 1529 1531 1533 1535 1538 1540 1542 1544 1546 1547 1548 1550 1551 1551 1552 1552 1553 1553 1554 1554 1555 1555 1556 1556 1556 1557 1557 1557 1557 1557 1558 1558
1503 1502 1502 1502 1503 1506 1508 1510 1512 1514 1514 1516 1519 1522 1523 1525 1528 1530 1532 1534 1535 1537 1540 1542 1544 1546 1548 1549 1550 1551 1552 1553 1553 1554 1554 1554 1555 1555 1556 1556 1557 1557 1557 1557 1557 1557 1557 1557 1558
1503 1503 1503 1504 1504 1507 1509 1512 1513 1515 1515 1517 1520 1522 1524 1526 1528 1530 1531 1533 1535 1538 1540 1542 1544 1546 1548 1549 1550 1551 1552 1553 1554 1554 1555 1555 1555 1556 1556 1556 1557 1556 1556 1556 1557 1557 1557 1557 1557
1503 1505 1507 1506 1506 1508 1511 1515 1514 1514 1516 1518 1521 1523 1525 1526 1528 1529 1531 1533 1535 1538 1540 1542 1544 1546 1548 1549 1551 1552 1553 1553 1554 1555 1555 1555 1556 1556 1556 1556 1556 1556 1556 1556 1556 1557 1557 1556 1556
1505 1512 1517 1509 1507 1509 1514 1522 1514 1515 1516 1518 1520 1523 1524 1526 1528 1529 1531 1533 1535 1538 1540 1542 1544 1545 1547 1549 1550 1552 1553 1553 1554 1555 1555 1555 1556 1556 1556 1556 1556 1556 1556 1556 1556 1556 1556 1556 1555
1515 1522 1520 1513 1507 1508 1513 1518 1513 1514 1516 1518 1520 1522 1524 1525 1527 1529 1531 1533 1535 1537 1539 1541 1543 1545 1546 1548 1550 1551 1552 1553 1554 1554 1555 1555 1555 1555 1556 1555 1555 1555 1555 1555 1555 1555 1555 1555 1554
1522 1521 1519 1517 1509 1510 1514 1515 1513 1514 1516 1517 1519 1521 1522 1523 1525 1527 1530 1532 1534 1536 1538 1540 1542 1544 1546 1547 1549 1550 1551 1552 1553 1553 1554 1554 1555 1555 1555 1555 1555 1554 1554 1554 1554 1554 1554 1554 1553
1511 1516 1519 1513 1507 1511 1514 1514 1513 1513 1515 1517 1518 1519 1520 1521 1524 1526 1528 1530 1532 1534 1536 1539 1540 1542 1544 1545 1547 1548 1549 1551 1551 1552 1553 1553 1553 1554 1554 1554 1553 1553 1553 1553 1553 1553 1553 1553 1552
1510 1516 1517 1512 1507 1511 1515 1515 1512 1511 1512 1513 1515 1517 1518 1520 1522 1524 1526 1528 1530 1533 1535 1537 1538 1540 1542 1543 1545 1547 1548 1549 1550 1551 1551 1551 1552 1552 1552 1552 1552 1552 1552 1552 1552 1552 1551 1551 1551
1510 1513 1513 1514 1511 1511 1515 1519 1515 1511 1511 1512 1513 1514 1516 1517 1519 1521 1523 1526 1528 1530 1532 1534 1536 1538 1540 1542 1544 1545 1546 1547 1548 1549 1549 1549 1550 1550 1550 1550 1550 1550 1550 1550 1550 1550 1550 1549 1550
1512 1503 1505 1510 1519 1527 1521 1536 1520 1513 1511 1510 1510 1510 1511 1513 1515 1517 1520 1522 1525 1527 1530 1533 1534 1536 1538 1540 1542 1543 1544 1544 1545 1546 1547 1548 1548 1548 1548 1548 1548 1548 1548 1548 1548 1548 1547 1548 1547
1503 1500 1505 1511 1520 1528 1527 1534 1527 1515 1513 1508 1506 1507 1508 1510 1512 1514 1516 1519 1522 1525 1528 1530 1532 1534 1536 1537 1539 1540 1541 1542 1543 1544 1545 1545 1545 1546 1546 1546 1546 1546 1546 1546 1545 1545 1545 1545 1545
1497 1505 1512 1520 1527 1539 1530 1535 1532 1518 1509 1504 1502 1503 1505 1507 1510 1512 1515 1517 1520 1523 1525 1527 1529 1532 1533 1535 1537 1538 1539 1540 1541 1542 1542 1543 1543 1543 1543 1543 1544 1543 1543 1543 1543 1543 1543 1543 1543
1501 1518 1538 1541 1548 1544 1529 1532 1527 1505 1501 1499 1499 1500 1502 1505 1507 1510 1512 1515 1517 1519 1522 1524 1527 1529 1531 1533 1534 1536 1537 1538 1539 1539 1540 1540 1540 1541 1541 1541 1541 1541 1541 1541 1541 1540 1540 1541 1541
1504 1513 1537 1548 1551 1543 1532 1533 1516 1501 1498 1497 1498 1499 1500 1502 1505 1507 1509 1512 1514 1517 1519 1521 1524 1526 1528 1530 1532 1534 1535 1536 1537 1537 1538 1538 1538 1538 1539 1539 1539 1539 1539 1538 1538 1538 1538 1539 1538
1504 1513 1513 1532 1538 1544 1537 1526 1510 1499 1498 1497 1497 1498 1499 1500 1502 1504 1507 1510 1512 1515 1517 1519 1522 1524 1526 1528 1530 1531 1533 1534 1534 1535 1535 1536 1536 1536 1537 1537 1537 1537 1536 1536 1536 1536 1536 1536 1536
1495 1506 1521 1532 1545 1548 1537 1530 1521 1505 1500 1497 1497 1496 1497 1499 1501 1503 1505 1508 1510 1512 1515 1517 1520 1522 1524 1526 1527 1529 1531 1532 1532 1533 1533 1533 1534 1534 1534 1534 1534 1534 1534 1534 1534 1533 1533 1533 1533
1502 1508 1517 1529 1532 1544 1547 1531 1501 1499 1495 1495 1494 1494 1495 1497 1499 1501 1504 1507 1509 1511 1513 1515 1517 1520 1521 1523 1525 1527 1529 1530 1530 1530 1530 1531 1531 1532 1532 1532 1532 1532 1532 1532 1531 1531 1531 1531 1531
1492 1500 1511 1523 1531 1535 1537 1526 1492 1492 1490 1491 1492 1493 1494 1496 1498 1500 1502 1505 1507 1509 1511 1513 1515 1517 1519 1521 1523 1525 1526 1527 1528 1528 1528 1529 1529 1529 1529 1529 1529 1529 1529 1529 1529 1528 1528 1528 1528